Red Oak, IA

2:22 PM CDT on July 24, 2017 (GMT -0500)
Red Oak Municipal

Weather History for KRDK - March, 2014

Change the Weather History Date:

Tuesday, March 4, 2014

  Actual Average Record
Temperature  
Mean Temperature 21 °F -  
Max Temperature 32 °F 45 °F 72 °F (1987)
Min Temperature 10 °F 24 °F -15 °F (1978)
Degree Days  
Heating Degree Days 44    
Moisture  
Dew Point 13 °F    
Average Humidity 61    
Maximum Humidity 79    
Minimum Humidity 50    
Precipitation  
Precipitation 0.00 in - - ()
Sea Level Pressure  
Sea Level Pressure 30.06 in    
Wind  
Wind Speed 8 mph (SE)    
Max Wind Speed 13 mph    
Max Gust Speed 17 mph    
Visibility 10 miles    
Events      
Averages and records for this station are not official NWS values.
T = Trace of Precipitation, MM = Missing Value Source: NWS Daily Summary

Daily Weather History Graph

Daily Weather History Graph

Search for Another Location

Airport or City:

Trip Planner

Search our weather history database for the weather conditions in past years. The results will help you decide how hot, cold, wet, or windy it might be!

Date:

Astronomy

Mar. 04, 2014 Rise Set
Actual Time 6:50 AM CST 6:15 PM CST
Civil Twilight 6:22 AM CST 6:43 PM CST
Nautical Twilight 5:51 AM CST 7:14 PM CST
Astronomical Twilight 5:19 AM CST 7:46 PM CST
Moon 8:35 AM CST (3/4) 10:26 PM CST (3/4)
Length of Visible Light 12h 20m
Length of Day
11h 25m
Waxing Crescent, 15% of the Moon is Illuminated
Mar 4
Waxing Crescent
Mar 8
First Quarter
Mar 16
Full
Mar 23
Last Quarter
Mar 30
New

Hourly Weather History & Observations

Time (CST) Temp. Windchill Dew Point Humidity Pressure Visibility Wind Dir Wind Speed Gust Speed Precip Events Conditions
12:15 AM 14.0 °F 0.5 °F 3.2 °F 62% 30.18 in 10.0 mi South 11.5 mph - N/A   Clear
12:35 AM 14.0 °F 0.5 °F 3.2 °F 62% 30.17 in 10.0 mi South 11.5 mph - N/A   Clear
12:55 AM 14.0 °F 2.9 °F 3.2 °F 62% 30.18 in 10.0 mi South 8.1 mph 15.0 mph N/A   Clear
1:15 AM 14.0 °F 3.9 °F 3.2 °F 62% 30.18 in 10.0 mi South 6.9 mph - N/A   Clear
2:00 AM 12.2 °F 4.3 °F 3.2 °F 67% 30.17 in 10.0 mi South 4.6 mph - N/A   Clear
2:15 AM 12.2 °F 0.7 °F 3.2 °F 67% 30.16 in 10.0 mi South 8.1 mph - N/A   Clear
2:30 AM 12.2 °F 4.3 °F 3.2 °F 67% 30.16 in 10.0 mi South 4.6 mph - N/A   Clear
2:55 AM 10.4 °F 0.8 °F 3.2 °F 73% 30.15 in 10.0 mi South 5.8 mph - N/A   Clear
4:55 AM 10.4 °F - 3.2 °F 73% 30.13 in - Calm Calm - N/A   Clear
5:15 AM 10.4 °F 4.0 °F 3.2 °F 73% 30.12 in 10.0 mi South 3.5 mph - N/A   Clear
7:55 AM 12.2 °F - 6.8 °F 79% 30.11 in 10.0 mi Calm Calm - N/A   Clear
8:15 AM 14.0 °F 2.9 °F 6.8 °F 73% 30.10 in 10.0 mi South 8.1 mph - N/A   Clear
8:35 AM 15.8 °F 5.1 °F 6.8 °F 68% 30.11 in 10.0 mi South 8.1 mph - N/A   Clear
8:55 AM 17.6 °F 5.7 °F 6.8 °F 63% 30.10 in 10.0 mi South 10.4 mph - N/A   Clear
9:15 AM 19.4 °F 9.5 °F 6.8 °F 58% 30.09 in 10.0 mi South 8.1 mph - N/A   Clear
9:35 AM 21.2 °F 12.6 °F 6.8 °F 54% 30.09 in 10.0 mi South 6.9 mph - N/A   Clear
9:50 AM 19.4 °F 10.4 °F 6.8 °F 58% 30.08 in 10.0 mi SSW 6.9 mph - N/A   Clear
10:35 AM 21.2 °F 13.6 °F 8.6 °F 58% 30.08 in 10.0 mi South 5.8 mph - N/A   Clear
10:55 AM 23.0 °F 17.0 °F 8.6 °F 54% 30.08 in 10.0 mi Variable 4.6 mph - N/A   Clear
11:15 AM 24.8 °F 16.9 °F 8.6 °F 50% 30.08 in 10.0 mi South 6.9 mph - N/A   Clear
11:35 AM 24.8 °F 17.9 °F 8.6 °F 50% 30.08 in 10.0 mi South 5.8 mph - N/A   Clear
11:55 AM 26.6 °F 19.1 °F 10.4 °F 51% 30.07 in 10.0 mi SE 6.9 mph 12.7 mph N/A   Clear
12:15 PM 26.6 °F 19.1 °F 10.4 °F 51% 30.07 in 10.0 mi SE 6.9 mph 13.8 mph N/A   Clear
12:35 PM 28.4 °F 20.4 °F 12.2 °F 51% 30.06 in 10.0 mi SE 8.1 mph 15.0 mph N/A   Clear
12:55 PM 28.4 °F 21.2 °F 12.2 °F 51% 30.05 in 10.0 mi SSE 6.9 mph 13.8 mph N/A   Clear
1:15 PM 28.4 °F 18.5 °F 12.2 °F 51% 30.04 in 10.0 mi SE 11.5 mph 17.3 mph N/A   Clear
1:35 PM 30.2 °F 22.6 °F 14.0 °F 51% 30.02 in 10.0 mi SE 8.1 mph 16.1 mph N/A   Clear
1:55 PM 30.2 °F 21.9 °F 14.0 °F 51% 30.02 in 10.0 mi SE 9.2 mph 16.1 mph N/A   Clear
2:15 PM 30.2 °F 20.8 °F 14.0 °F 51% 30.01 in 10.0 mi SE 11.5 mph - N/A   Clear
2:30 PM 30.2 °F 21.9 °F 14.0 °F 51% 30.02 in 10.0 mi SE 9.2 mph 16.1 mph N/A   Partly Cloudy
2:55 PM 30.2 °F 21.9 °F 15.8 °F 55% 30.02 in 10.0 mi South 9.2 mph - N/A   Partly Cloudy
3:15 PM 32.0 °F 24.8 °F 15.8 °F 51% 30.02 in 10.0 mi South 8.1 mph - N/A   Partly Cloudy
3:35 PM 32.0 °F 24.2 °F 15.8 °F 51% 30.01 in 10.0 mi SSE 9.2 mph - N/A   Scattered Clouds
3:55 PM 32.0 °F 22.5 °F 17.6 °F 55% 30.00 in 10.0 mi SSE 12.7 mph - N/A   Scattered Clouds
4:15 PM 32.0 °F 23.6 °F 17.6 °F 55% 29.99 in 10.0 mi SSE 10.4 mph - N/A   Scattered Clouds
4:35 PM 32.0 °F 23.0 °F 17.6 °F 55% 29.98 in 10.0 mi SE 11.5 mph - N/A   Scattered Clouds
4:50 PM 32.0 °F 23.0 °F 17.6 °F 55% 29.98 in 10.0 mi SE 11.5 mph - N/A   Partly Cloudy
5:10 PM 32.0 °F 23.6 °F 17.6 °F 55% 29.98 in 10.0 mi SE 10.4 mph - N/A   Clear
5:40 PM 32.0 °F 25.6 °F 17.6 °F 55% 30.00 in 10.0 mi SSE 6.9 mph - N/A   Mostly Cloudy
5:55 PM 30.2 °F 24.3 °F 17.6 °F 60% 30.00 in 10.0 mi SE 5.8 mph - N/A   Mostly Cloudy
6:15 PM 30.2 °F 25.4 °F 17.6 °F 60% 30.01 in 10.0 mi SE 4.6 mph - N/A   Mostly Cloudy
6:35 PM 30.2 °F 26.7 °F 19.4 °F 64% 30.01 in 10.0 mi East 3.5 mph - N/A   Mostly Cloudy
6:55 PM 30.2 °F 23.4 °F 19.4 °F 64% 30.00 in 10.0 mi East 6.9 mph - N/A   Overcast
7:15 PM 30.2 °F 24.3 °F 19.4 °F 64% 30.01 in 10.0 mi ENE 5.8 mph - N/A   Overcast
7:35 PM 30.2 °F 24.3 °F 19.4 °F 64% 30.01 in 10.0 mi ENE 5.8 mph - N/A   Overcast
7:55 PM 30.2 °F 24.3 °F 19.4 °F 64% 30.02 in 10.0 mi ENE 5.8 mph - N/A   Overcast
8:15 PM 30.2 °F 24.3 °F 19.4 °F 64% 30.03 in 10.0 mi NE 5.8 mph - N/A   Overcast
8:35 PM 30.2 °F 24.3 °F 21.2 °F 69% 30.03 in 10.0 mi NE 5.8 mph - N/A   Overcast
8:50 PM 30.2 °F 23.4 °F 21.2 °F 69% 30.04 in 10.0 mi NE 6.9 mph - N/A   Overcast
9:15 PM 30.2 °F 25.4 °F 21.2 °F 69% 30.04 in 10.0 mi NE 4.6 mph - N/A   Overcast
9:35 PM 30.2 °F 25.4 °F 21.2 °F 69% 30.05 in 10.0 mi NE 4.6 mph - N/A   Overcast
9:55 PM 30.2 °F 24.3 °F 21.2 °F 69% 30.06 in 10.0 mi ENE 5.8 mph - N/A   Overcast
10:15 PM 30.2 °F 24.3 °F 21.2 °F 69% 30.06 in 10.0 mi ENE 5.8 mph - N/A   Overcast
10:35 PM 30.2 °F 26.7 °F 21.2 °F 69% 30.08 in 10.0 mi ENE 3.5 mph - N/A   Overcast
10:55 PM 30.2 °F 24.3 °F 21.2 °F 69% 30.08 in 10.0 mi NE 5.8 mph - N/A   Overcast
11:15 PM 28.4 °F 22.2 °F 21.2 °F 74% 30.08 in 10.0 mi NE 5.8 mph - N/A   Mostly Cloudy
11:35 PM 30.2 °F 25.4 °F 21.2 °F 69% 30.08 in 10.0 mi NE 4.6 mph - N/A   Overcast
11:55 PM 28.4 °F 22.2 °F 21.2 °F 74% 30.09 in 10.0 mi NNE 5.8 mph - N/A   Overcast